Location: Newark
(30.0333°N, 31.2167°E)
Time: 20:59:59
(UTC+00:00)

Tiros 1 - Pass Details

Date: 24 January 2020
Orbit: 631 x 664 km, 48.4° (Epoch: 23 February)

Event Time Altitude Azimuth Distance (km) Brightness Sun altitude
Rises 17:25:33 0° 313° (NW) 2,982 11.1 -26.0°
Reaches altitude 10° 17:27:54 10° 315° (NW) 2,072 10.2 -26.5°
Enters shadow 17:31:14 44° 329° (NNW) 911 8.0 -27.3°
Maximum altitude 17:32:41 73° 41° (NE) 692 - -27.6°
Drops below altitude 10° 17:37:28 10° 126° (SE) 2,071 - -28.6°
Sets 17:39:49 0° 128° (SE) 2,981 - -29.1°
